Fayetteville, AR

6:34 AM CDT on March 23, 2017 (GMT -0500)
Drake

Weather History for KFYV - March, 2014

Change the Weather History Date:

Thursday, March 20, 2014

  Actual Average Record
Temperature  
Mean Temperature 46 °F 49 °F  
Max Temperature 66 °F 61 °F 85 °F (2017)
Min Temperature 26 °F 37 °F 8 °F (1965)
Degree Days  
Heating Degree Days 19 16  
Month to date heating degree days 457 370  
Since 1 July heating degree days 4177 3673  
Cooling Degree Days 0 0  
Month to date cooling degree days 0 0  
Year to date cooling degree days 0 0  
Moisture  
Dew Point 25 °F    
Average Humidity 53    
Maximum Humidity 92    
Minimum Humidity 13    
Precipitation  
Precipitation 0.01 in 0.13 in 2.11 in (1955)
Month to date precipitation 4.18 2.48  
Year to date precipitation 6.66 8.13  
Sea Level Pressure  
Sea Level Pressure 30.12 in    
Wind  
Wind Speed 5 mph (SSW)    
Max Wind Speed 17 mph    
Max Gust Speed 28 mph    
Visibility 10 miles    
Events      
T = Trace of Precipitation, MM = Missing Value Source: NWS Daily Summary

Daily Weather History Graph

Daily Weather History Graph

Search for Another Location

Airport or City:

Trip Planner

Search our weather history database for the weather conditions in past years. The results will help you decide how hot, cold, wet, or windy it might be!

Date:

Astronomy

Mar. 20, 2014 Rise Set
Actual Time 7:20 AM CDT 7:28 PM CDT
Civil Twilight 6:54 AM CDT 7:54 PM CDT
Nautical Twilight 6:24 AM CDT 8:23 PM CDT
Astronomical Twilight 5:54 AM CDT 8:54 PM CDT
Moon 11:41 PM CDT (3/20) 9:34 AM CDT (3/20)
Length of Visible Light 12h 59m
Length of Day
12h 08m
Waning Gibbous, 84% of the Moon is Illuminated
Mar 20
Waning Gibbous
Mar 23
Last Quarter
Mar 30
New
Apr 7
First Quarter
Apr 15
Full

Hourly Weather History & Observations

Time (CDT) Temp. Windchill Dew Point Humidity Pressure Visibility Wind Dir Wind Speed Gust Speed Precip Events Conditions
12:53 AM 30.9 °F 27.5 °F 27.0 °F 85% 30.22 in 10.0 mi South 3.5 mph - N/A   Clear
1:53 AM 30.9 °F 26.2 °F 26.1 °F 82% 30.22 in 10.0 mi South 4.6 mph - N/A   Clear
2:53 AM 28.9 °F 23.9 °F 26.1 °F 89% 30.22 in 10.0 mi SSW 4.6 mph - N/A   Clear
3:53 AM 28.0 °F 22.8 °F 25.0 °F 88% 30.21 in 10.0 mi South 4.6 mph - N/A   Clear
4:53 AM 28.0 °F - 25.0 °F 88% 30.19 in 10.0 mi Calm Calm - N/A   Clear
5:53 AM 28.0 °F - 25.0 °F 88% 30.19 in 10.0 mi Calm Calm - N/A   Clear
6:53 AM 27.0 °F - 24.1 °F 89% 30.19 in 10.0 mi Calm Calm - N/A   Clear
7:53 AM 27.0 °F - 25.0 °F 92% 30.21 in 10.0 mi Calm Calm - N/A   Clear
8:53 AM 33.1 °F - 28.9 °F 85% 30.21 in 10.0 mi Calm Calm - N/A   Clear
9:53 AM 44.1 °F - 35.1 °F 71% 30.21 in - Calm Calm - N/A   Unknown
10:53 AM 55.9 °F - 30.0 °F 37% 30.19 in 10.0 mi North - - 0.01 in   Clear
11:53 AM 61.0 °F - 24.1 °F 24% 30.17 in 10.0 mi North - - N/A   Clear
12:53 PM 63.0 °F - 23.0 °F 22% 30.14 in 10.0 mi South 8.1 mph - N/A   Clear
1:53 PM 64.0 °F - 24.1 °F 22% 30.11 in 10.0 mi South 6.9 mph 23.0 mph N/A   Clear
2:53 PM 66.0 °F - 19.0 °F 17% 30.07 in 10.0 mi SSW 13.8 mph 21.9 mph N/A   Clear
3:53 PM 64.9 °F - 14.0 °F 14% 30.04 in 10.0 mi SSW 16.1 mph - N/A   Clear
4:53 PM 64.0 °F - 19.9 °F 18% 30.04 in 10.0 mi SSW 12.7 mph - N/A   Clear
5:53 PM 63.0 °F - 21.9 °F 21% 30.00 in 10.0 mi South 15.0 mph 19.6 mph N/A   Clear
6:53 PM 60.1 °F - 21.9 °F 23% 29.99 in 10.0 mi South 12.7 mph - N/A   Clear
7:53 PM 53.1 °F - 25.0 °F 34% 30.01 in 10.0 mi South 3.5 mph - N/A   Clear
8:53 PM 46.0 °F - 28.9 °F 51% 30.01 in 10.0 mi Calm Calm - N/A   Clear
9:53 PM 41.0 °F - 30.9 °F 67% 30.02 in 10.0 mi Calm Calm - N/A   Clear
10:53 PM 39.0 °F 35.7 °F 30.9 °F 73% 30.01 in 10.0 mi South 4.6 mph - N/A   Clear
11:53 PM 44.1 °F 42.5 °F 28.0 °F 53% 30.01 in 10.0 mi South 3.5 mph - N/A   Clear